�������l�o���
Date,Time,MP-1(��Sv/h),MP-2(��Sv/h),MP-3(��Sv/h),MP-4(��Sv/h),MP-5(��Sv/h),MP-6(��Sv/h),MP-7(��Sv/h),MP-8(��Sv/h),����,����(m/s),���J
2018/09/04,00:00,0.799,1.172,0.834,1.479,1.068,0.470,0.810,0.768,��쐼,2.6,��
2018/09/04,00:10,0.799,1.176,0.835,1.479,1.068,0.467,0.810,0.768,��,2.0,��
2018/09/04,00:20,0.798,1.174,0.832,1.478,1.071,0.468,0.810,0.767,��,2.9,��
2018/09/04,00:30,0.799,1.175,0.835,1.480,1.069,0.467,0.811,0.769,��,3.4,��
2018/09/04,00:40,0.799,1.175,0.834,1.479,1.069,0.468,0.811,0.770,��,1.7,��
2018/09/04,00:50,0.800,1.172,0.835,1.481,1.070,0.467,0.810,0.767,��,2.0,��
2018/09/04,01:00,0.800,1.172,0.832,1.480,1.070,0.469,0.811,0.770,��,3.2,��
2018/09/04,01:10,0.798,1.174,0.835,1.480,1.067,0.468,0.813,0.769,��쓌,2.6,��
2018/09/04,01:20,0.799,1.171,0.835,1.479,1.069,0.469,0.812,0.768,��쓌,3.9,��
2018/09/04,01:30,0.799,1.173,0.833,1.479,1.071,0.470,0.811,0.770,��쓌,2.3,��
2018/09/04,01:40,0.799,1.175,0.833,1.479,1.067,0.468,0.812,0.771,��,4.2,��
2018/09/04,01:50,0.800,1.173,0.833,1.477,1.067,0.469,0.812,0.770,��,4.7,��
2018/09/04,02:00,0.799,1.173,0.835,1.480,1.070,0.468,0.811,0.768,��,5.0,��
2018/09/04,02:10,0.799,1.172,0.833,1.481,1.070,0.469,0.812,0.769,��,5.2,��
2018/09/04,02:20,0.797,1.173,0.834,1.479,1.070,0.469,0.812,0.771,��,5.3,��
2018/09/04,02:30,0.798,1.173,0.835,1.478,1.071,0.468,0.812,0.770,��,5.3,��
2018/09/04,02:40,0.798,1.173,0.833,1.481,1.069,0.467,0.811,0.771,��,5.0,��
2018/09/04,02:50,0.799,1.173,0.835,1.481,1.072,0.469,0.812,0.769,��쓌,5.2,��
2018/09/04,03:00,0.800,1.175,0.831,1.482,1.070,0.469,0.811,0.769,��,4.6,��
2018/09/04,03:10,0.798,1.174,0.835,1.480,1.070,0.469,0.810,0.771,��,5.2,��
2018/09/04,03:20,0.798,1.174,0.833,1.481,1.068,0.469,0.812,0.767,��,5.2,��
2018/09/04,03:30,0.797,1.174,0.833,1.478,1.068,0.469,0.812,0.770,��,5.9,��
2018/09/04,03:40,0.799,1.172,0.835,1.483,1.069,0.469,0.810,0.769,��,5.4,��
2018/09/04,03:50,0.798,1.174,0.831,1.480,1.069,0.469,0.812,0.770,��,4.7,��
2018/09/04,04:00,0.798,1.170,0.834,1.480,1.068,0.468,0.812,0.770,��,3.8,��
2018/09/04,04:10,0.799,1.173,0.833,1.480,1.069,0.468,0.813,0.769,��,2.8,��
2018/09/04,04:20,0.800,1.172,0.832,1.479,1.069,0.469,0.813,0.768,��,3.2,��
2018/09/04,04:30,0.799,1.172,0.834,1.480,1.070,0.468,0.812,0.769,��,4.2,��
2018/09/04,04:40,0.798,1.172,0.832,1.481,1.069,0.467,0.813,0.769,��,5.4,��
2018/09/04,04:50,0.798,1.173,0.832,1.480,1.069,0.468,0.812,0.769,��,3.6,��
2018/09/04,05:00,0.798,1.169,0.834,1.482,1.069,0.468,0.810,0.769,��쐼,3.0,��
2018/09/04,05:10,0.798,1.172,0.833,1.479,1.071,0.469,0.812,0.768,��,4.1,��
2018/09/04,05:20,0.798,1.173,0.834,1.481,1.068,0.469,0.810,0.769,��,3.5,��
2018/09/04,05:30,0.798,1.171,0.833,1.480,1.067,0.469,0.811,0.768,��,3.2,��
2018/09/04,05:40,0.798,1.173,0.833,1.479,1.071,0.468,0.813,0.767,��,4.2,��
2018/09/04,05:50,0.797,1.173,0.833,1.481,1.070,0.468,0.813,0.769,��,4.1,��
2018/09/04,06:00,0.796,1.171,0.833,1.479,1.070,0.470,0.812,0.769,��,2.8,��
2018/09/04,06:10,0.800,1.173,0.833,1.481,1.069,0.470,0.813,0.769,��,3.4,��
2018/09/04,06:20,0.798,1.175,0.834,1.481,1.070,0.469,0.813,0.771,��쓌,3.6,��
2018/09/04,06:30,0.798,1.172,0.835,1.481,1.070,0.469,0.814,0.769,��쓌,3.5,��
2018/09/04,06:40,0.799,1.174,0.833,1.481,1.069,0.468,0.813,0.769,��,3.4,��
2018/09/04,06:50,0.798,1.174,0.835,1.482,1.069,0.469,0.813,0.770,��,2.5,��
2018/09/04,07:00,0.799,1.173,0.831,1.481,1.070,0.467,0.813,0.771,��쐼,1.9,��
2018/09/04,07:10,0.799,1.174,0.834,1.479,1.069,0.467,0.814,0.770,�쐼,1.7,��
2018/09/04,07:20,0.799,1.170,0.833,1.483,1.067,0.467,0.811,0.769,��,0.9,��
2018/09/04,07:30,0.800,1.171,0.834,1.481,1.067,0.466,0.812,0.771,��,1.2,��
2018/09/04,07:40,0.798,1.171,0.834,1.481,1.070,0.468,0.813,0.772,��쓌,2.6,��
2018/09/04,07:50,0.801,1.173,0.834,1.480,1.070,0.466,0.813,0.769,��쓌,3.7,�L
2018/09/04,08:00,0.802,1.174,0.833,1.481,1.071,0.466,0.811,0.769,��쓌,4.2,��
2018/09/04,08:10,0.801,1.173,0.834,1.481,1.069,0.467,0.812,0.769,��쓌,6.0,��
2018/09/04,08:20,0.799,1.174,0.835,1.483,1.071,0.468,0.812,0.768,��쓌,5.8,��
2018/09/04,08:30,0.799,1.173,0.833,1.482,1.071,0.468,0.812,0.768,��쓌,7.3,��
2018/09/04,08:40,0.802,1.173,0.832,1.483,1.071,0.468,0.811,0.768,��쓌,7.4,��
2018/09/04,08:50,0.800,1.175,0.833,1.479,1.071,0.469,0.814,0.768,��쓌,7.2,��
2018/09/04,09:00,0.799,1.174,0.832,1.481,1.071,0.468,0.812,0.768,��쓌,7.9,�L
2018/09/04,09:10,0.798,1.174,0.833,1.484,1.069,0.467,0.814,0.768,��,5.3,��
2018/09/04,09:20,0.798,1.174,0.833,1.483,1.068,0.467,0.813,0.768,��,6.2,��
2018/09/04,09:30,0.798,1.175,0.835,1.484,1.071,0.467,0.814,0.768,��,6.2,��
2018/09/04,09:40,0.795,1.172,0.831,1.480,1.069,0.468,0.813,0.767,��쓌,8.1,��
2018/09/04,09:50,0.798,1.178,0.833,1.482,1.072,0.468,0.814,0.766,��쓌,10.5,��
2018/09/04,10:00,0.797,1.174,0.835,1.482,1.071,0.470,0.814,0.769,��쓌,10.3,��
2018/09/04,10:10,0.799,1.177,0.833,1.482,1.071,0.469,0.813,0.769,��쓌,9.4,��
2018/09/04,10:20,0.800,1.174,0.832,1.481,1.070,0.467,0.813,0.769,��,9.0,��
2018/09/04,10:30,0.799,1.180,0.833,1.483,1.072,0.468,0.813,0.768,��,7.9,�L
2018/09/04,10:40,0.797,1.179,0.832,1.483,1.074,0.468,0.811,0.767,��쓌,7.3,�L
2018/09/04,10:50,0.798,1.177,0.834,1.484,1.072,0.468,0.812,0.768,��,6.9,�L
2018/09/04,11:00,0.796,1.177,0.834,1.484,1.074,0.470,0.814,0.768,��,6.7,�L
2018/09/04,11:10,0.799,1.176,0.834,1.482,1.074,0.469,0.812,0.768,��,7.9,�L
2018/09/04,11:20,0.798,1.178,0.835,1.483,1.074,0.471,0.811,0.770,��쓌,7.8,�L
2018/09/04,11:30,0.799,1.178,0.833,1.484,1.072,0.469,0.813,0.768,��쓌,7.4,�L
2018/09/04,11:40,0.799,1.176,0.834,1.484,1.074,0.469,0.813,0.767,��쓌,5.5,�L
2018/09/04,11:50,0.799,1.179,0.833,1.484,1.073,0.469,0.814,0.767,��,4.8,�L
2018/09/04,12:00,0.796,1.178,0.833,1.483,1.068,0.467,0.811,0.766,��쓌,4.7,�L
2018/09/04,12:10,0.778,1.154,0.823,1.460,1.050,0.464,0.803,0.757,��쐼,4.9,�L
2018/09/04,12:20,0.778,1.149,0.821,1.452,1.048,0.463,0.802,0.755,��쐼,4.5,��
2018/09/04,12:30,0.780,1.152,0.822,1.453,1.049,0.463,0.802,0.759,��,5.6,��
2018/09/04,12:40,0.780,1.153,0.824,1.457,1.054,0.464,0.803,0.760,��쓌,6.3,�L
2018/09/04,12:50,0.782,1.155,0.824,1.455,1.052,0.465,0.807,0.758,��쓌,5.8,�L
2018/09/04,13:00,0.781,1.157,0.822,1.459,1.053,0.465,0.806,0.760,��쓌,5.6,��
2018/09/04,13:10,0.784,1.160,0.822,1.459,1.051,0.465,0.806,0.760,��,6.2,�L
2018/09/04,13:20,0.786,1.158,0.823,1.456,1.056,0.465,0.806,0.758,��쓌,8.1,�L
2018/09/04,13:30,0.785,1.159,0.824,1.460,1.056,0.468,0.808,0.760,��쓌,8.5,�L
2018/09/04,13:40,0.786,1.159,0.823,1.461,1.056,0.467,0.807,0.760,��쓌,9.5,�L
2018/09/04,13:50,0.786,1.161,0.824,1.457,1.056,0.466,0.807,0.762,��,9.5,�L
2018/09/04,14:00,0.788,1.163,0.823,1.460,1.057,0.467,0.807,0.760,��쓌,10.6,�L
2018/09/04,14:10,0.788,1.162,0.823,1.460,1.062,0.468,0.807,0.763,��쓌,10.9,�L
2018/09/04,14:20,0.789,1.160,0.823,1.459,1.062,0.469,0.808,0.761,��쓌,10.2,�L
2018/09/04,14:30,0.790,1.161,0.827,1.461,1.064,0.469,0.808,0.763,��,10.2,�L
2018/09/04,14:40,0.788,1.163,0.827,1.463,1.065,0.468,0.809,0.761,��,11.0,��
2018/09/04,14:50,0.788,1.164,0.828,1.464,1.060,0.470,0.809,0.762,��쓌,13.0,��
2018/09/04,15:00,0.788,1.165,0.827,1.464,1.062,0.470,0.809,0.763,��,11.9,�L
2018/09/04,15:10,0.791,1.164,0.829,1.463,1.060,0.470,0.809,0.761,��,11.7,�L
2018/09/04,15:20,0.790,1.163,0.829,1.466,1.059,0.469,0.809,0.763,��,10.3,��
2018/09/04,15:30,0.790,1.166,0.828,1.464,1.058,0.468,0.809,0.763,��,13.3,��
2018/09/04,15:40,0.792,1.166,0.828,1.466,1.061,0.470,0.807,0.763,��,11.8,��
2018/09/04,15:50,0.793,1.167,0.830,1.463,1.061,0.469,0.811,0.763,��,14.9,��
2018/09/04,16:00,0.790,1.167,0.827,1.466,1.061,0.470,0.810,0.763,��,12.7,��
2018/09/04,16:10,0.792,1.171,0.828,1.468,1.062,0.469,0.809,0.764,��,12.1,�L
2018/09/04,16:20,0.791,1.169,0.828,1.465,1.060,0.470,0.811,0.766,��,12.2,��
2018/09/04,16:30,0.790,1.170,0.829,1.468,1.066,0.470,0.810,0.765,��,13.3,�L
2018/09/04,16:40,0.791,1.168,0.832,1.467,1.063,0.470,0.812,0.765,��쓌,11.8,��
2018/09/04,16:50,0.790,1.172,0.828,1.467,1.062,0.469,0.813,0.766,��쓌,14.9,��
2018/09/04,17:00,0.790,1.169,0.829,1.468,1.063,0.470,0.813,0.767,��,13.8,��
2018/09/04,17:10,0.793,1.170,0.829,1.468,1.067,0.468,0.811,0.765,��,14.2,�L
2018/09/04,17:20,0.791,1.166,0.827,1.466,1.063,0.468,0.813,0.767,��쓌,12.8,�L
2018/09/04,17:30,0.792,1.172,0.829,1.467,1.065,0.468,0.812,0.766,��쓌,16.8,��
2018/09/04,17:40,0.791,1.166,0.829,1.466,1.064,0.469,0.814,0.765,��쓌,17.2,�L
2018/09/04,17:50,0.794,1.170,0.830,1.468,1.065,0.470,0.813,0.766,��쓌,16.3,��
2018/09/04,18:00,0.792,1.168,0.830,1.468,1.065,0.470,0.813,0.767,��쓌,17.9,�L
2018/09/04,18:10,0.792,1.169,0.829,1.469,1.067,0.471,0.812,0.767,��쓌,16.6,�L
2018/09/04,18:20,0.793,1.169,0.830,1.467,1.064,0.471,0.813,0.768,��쓌,18.3,�L
2018/09/04,18:30,0.793,1.170,0.830,1.470,1.063,0.470,0.814,0.767,-,CALM,�L
2018/09/04,18:40,0.792,1.171,0.831,1.470,1.068,0.469,0.813,0.767,��쓌,21.3,�L
2018/09/04,18:50,0.792,1.169,0.831,1.471,1.065,0.471,0.813,0.769,��,13.0,�L
2018/09/04,19:00,0.794,1.171,0.829,1.467,1.064,0.470,0.814,0.769,��,11.9,�L
2018/09/04,19:10,0.790,1.170,0.828,1.467,1.064,0.470,0.813,0.767,��,12.0,�L
2018/09/04,19:20,0.792,1.171,0.827,1.471,1.064,0.472,0.811,0.769,��,14.6,��
2018/09/04,19:30,0.790,1.168,0.830,1.470,1.062,0.470,0.815,0.767,-,CALM,�L
2018/09/04,19:40,0.794,1.170,0.829,1.468,1.063,0.471,0.813,0.768,-,CALM,�L
2018/09/04,19:50,0.791,1.170,0.827,1.468,1.066,0.469,0.814,0.767,��,16.6,�L
2018/09/04,20:00,0.793,1.169,0.830,1.470,1.063,0.469,0.815,0.767,��쓌,21.3,�L
2018/09/04,20:10,0.793,1.167,0.830,1.469,1.065,0.469,0.814,0.766,��쓌,18.3,��
2018/09/04,20:20,0.792,1.170,0.830,1.471,1.067,0.471,0.815,0.767,-,CALM,��
2018/09/04,20:30,0.795,1.167,0.832,1.471,1.065,0.472,0.814,0.766,��,19.9,�L
2018/09/04,20:40,0.793,1.170,0.828,1.470,1.063,0.471,0.813,0.767,-,CALM,�L
2018/09/04,20:50,0.793,1.169,0.828,1.470,1.065,0.470,0.812,0.769,-,CALM,�L
2018/09/04,21:00,0.795,1.172,0.830,1.470,1.067,0.473,0.812,0.766,-,CALM,�L
2018/09/04,21:10,0.795,1.171,0.830,1.471,1.066,0.470,0.815,0.768,��,16.3,�L
2018/09/04,21:20,0.793,1.172,0.830,1.469,1.068,0.470,0.814,0.766,-,CALM,��
2018/09/04,21:30,0.795,1.171,0.830,1.471,1.067,0.470,0.814,0.767,-,CALM,��
2018/09/04,21:40,0.794,1.170,0.829,1.470,1.067,0.470,0.814,0.769,��,15.2,��
2018/09/04,21:50,0.795,1.174,0.830,1.472,1.067,0.471,0.813,0.768,-,CALM,�L
2018/09/04,22:00,0.794,1.169,0.831,1.472,1.069,0.471,0.813,0.769,��,18.8,��
2018/09/04,22:10,0.794,1.172,0.831,1.472,1.069,0.470,0.814,0.770,-,CALM,��
2018/09/04,22:20,0.794,1.174,0.831,1.473,1.069,0.472,0.814,0.767,��쓌,15.7,��
2018/09/04,22:30,0.793,1.169,0.829,1.471,1.069,0.469,0.814,0.769,��,11.0,��
2018/09/04,22:40,0.790,1.173,0.829,1.469,1.065,0.471,0.813,0.767,��,13.3,��
2018/09/04,22:50,0.794,1.171,0.831,1.470,1.070,0.469,0.813,0.771,��,11.6,��
2018/09/04,23:00,0.794,1.172,0.830,1.472,1.068,0.471,0.815,0.769,��,10.5,��
2018/09/04,23:10,0.794,1.172,0.831,1.472,1.071,0.470,0.814,0.770,��,9.3,��
2018/09/04,23:20,0.794,1.173,0.830,1.474,1.070,0.470,0.815,0.771,��,11.0,��
2018/09/04,23:30,0.793,1.175,0.832,1.474,1.071,0.470,0.814,0.770,��,9.5,��
2018/09/04,23:40,0.795,1.175,0.834,1.473,1.068,0.472,0.815,0.769,��,10.7,��
2018/09/04,23:50,0.794,1.174,0.832,1.472,1.068,0.469,0.816,0.768,��,11.3,��
